Location: Karlskoga
(59.3269°N, 14.5116°E)
Time: 15:14:16
(UTC+01:00)

ISS - Pass Details

Date: 04 December 2021
Orbit: 413 x 422 km, 51.6° (Epoch: 18 January)

Event Time Altitude Azimuth Distance (km) Brightness Sun altitude
Rises 16:13:29 0° 254° (WSW) 2,386 1.9 -7.4°
Reaches altitude 10° 16:15:53 10° 239° (WSW) 1,518 0.9 -7.7°
Maximum altitude 16:18:35 22° 186° (S) 989 -1.4 -8.0°
Drops below altitude 10° 16:21:16 10° 134° (SE) 1,513 -1.1 -8.3°
Enters shadow 16:24:14 -2° 117° (ESE) 2,598 -0.1 -8.6°
